Карточка аэропорта UIAA

Внимание!
Информация на этой странице в стадии наполнения.
Если вы не увидели какой-то информации, или заметили неточность - пожалуйста сообщите нам!
Спасибо!
Команда RU-STAFF
Название аэропортаКадала
Название аэропорта (англ.)Kadala
Превышение2271 ft. (692.2 m.)
Координаты52°1.5779999999999', 113°18.3'
Высота перехода1800m
Эшелон переходаFL100
Коды ответчика3350-3377
Зона ОрВДИркутск РПИ (UIII)
Данные METARUIAA 160800Z 35004MPS 9999 NSC 25/M01 Q1002 R29/CLRD70 NOSIG RMK QFE693/0924
Проноз погоды (TAF)UIAA 160800Z 1609/1709 34005G10MPS 9999 SCT040CB TEMPO 1609/1709 04003G08MPS
NOTAMshow/hide NOTAM
AWOS   TABLE

Информация о ВПП


Диспетчерские позиции

Позывной Наименование органа УВД Частота
UIAA_APPЧита-Подход122.0
UIAA_TWRЧита-Вышка118.2



Спутниковое изображение